Madison, SD

4:59 PM CST on November 16, 2019 (GMT -0600)
Madison Municipal

Weather History for KMDS - September, 2019

Change the Weather History Date:

Sunday, September 1, 2019

  Actual Average Record
Temperature  
Mean Temperature 65 °F -  
Max Temperature 75 °F 78 °F 86 °F (2011)
Min Temperature 55 °F 55 °F 50 °F (2010)
Growing Degree Days 15 (Base 50)    
Moisture  
Dew Point 63 °F    
Average Humidity 99    
Maximum Humidity 100    
Minimum Humidity 78    
Precipitation  
Precipitation 0.00 in - - ()
Sea Level Pressure  
Sea Level Pressure 30.08 in    
Wind  
Wind Speed 7 mph ()    
Max Wind Speed 13 mph    
Max Gust Speed 17 mph    
Visibility 9.6 miles    
Events Fog , Rain    
Averages and records for this station are not official NWS values.
T = Trace of Precipitation, MM = Missing Value Source: Averaged Metar Reports

Daily Weather History Graph

Daily Weather History Graph

Search for Another Location

Airport or City:

Astronomy

Sep. 01, 2019 Rise Set
Actual Time 6:51 AM CDT 8:04 PM CDT
Civil Twilight 6:21 AM CDT 8:34 PM CDT
Nautical Twilight 5:45 AM CDT 9:09 PM CDT
Astronomical Twilight 5:07 AM CDT 9:47 PM CDT
Moon 9:27 AM CDT (9/1) 9:47 PM CDT (9/1)
Length of Visible Light 14h 12m
Length of Day
13h 13m
Waxing Crescent, 8% of the Moon is Illuminated
Sep 1
Waxing Crescent
Sep 5
First Quarter
Sep 13
Full
Sep 21
Last Quarter
Sep 28
New

Hourly Weather History & Observations

Time (CDT) Temp. Dew Point Humidity Pressure Visibility Wind Dir Wind Speed Gust Speed Precip Events Conditions
12:15 AM 57.2 °F 57.2 °F 100% 30.15 in 10.0 mi SSE 9.2 mph - N/A   Overcast
12:20 AM 57.2 °F 57.2 °F 100% 30.15 in 10.0 mi SSE 9.2 mph - N/A   Overcast
12:35 AM 57.2 °F 57.2 °F 100% 30.15 in 10.0 mi South 9.2 mph - N/A   Overcast
12:40 AM 57.2 °F 57.2 °F 100% 30.15 in 10.0 mi South 10.4 mph - N/A   Overcast
12:55 AM 57.2 °F 57.2 °F 100% 30.15 in 10.0 mi South 10.4 mph - N/A   Overcast
1:15 AM 57.2 °F 57.2 °F 100% 30.15 in 10.0 mi South 9.2 mph - N/A   Overcast
1:20 AM 57.2 °F 57.2 °F 100% 30.15 in 10.0 mi South 9.2 mph - N/A   Overcast
1:35 AM 57.2 °F 57.2 °F 100% 30.14 in 10.0 mi South 10.4 mph 17.3 mph N/A   Overcast
1:40 AM 57.2 °F 57.2 °F 100% 30.14 in 10.0 mi South 10.4 mph - N/A   Overcast
1:55 AM 57.2 °F 57.2 °F 100% 30.14 in 10.0 mi South 8.1 mph - N/A   Overcast
2:00 AM 57.2 °F 57.2 °F 100% 30.14 in 10.0 mi South 10.4 mph - N/A   Overcast
2:15 AM 57.2 °F 57.2 °F 100% 30.13 in 10.0 mi South 9.2 mph - N/A   Overcast
2:35 AM 57.2 °F 57.2 °F 100% 30.12 in 10.0 mi South 12.7 mph - N/A   Mostly Cloudy
2:40 AM 57.2 °F 57.2 °F 100% 30.12 in 10.0 mi South 11.5 mph - N/A   Mostly Cloudy
2:55 AM 57.2 °F 57.2 °F 100% 30.12 in 10.0 mi South 10.4 mph - N/A   Scattered Clouds
3:15 AM 57.2 °F 57.2 °F 100% 30.12 in 10.0 mi South 8.1 mph - N/A   Partly Cloudy
3:35 AM 55.4 °F 55.4 °F 100% 30.12 in 10.0 mi South 5.8 mph - N/A   Clear
3:40 AM 55.4 °F 55.4 °F 100% 30.11 in 10.0 mi South 8.1 mph - N/A   Clear
3:55 AM 55.4 °F 55.4 °F 100% 30.11 in 10.0 mi South 8.1 mph - N/A   Clear
4:00 AM 55.4 °F 55.4 °F 100% 30.11 in 10.0 mi South 6.9 mph - N/A   Clear
4:15 AM 55.4 °F 55.4 °F 100% 30.11 in 10.0 mi South 6.9 mph - N/A   Partly Cloudy
4:35 AM 55.4 °F 55.4 °F 100% 30.10 in 10.0 mi South 6.9 mph - N/A   Scattered Clouds
4:40 AM 55.4 °F 55.4 °F 100% 30.10 in 10.0 mi South 5.8 mph - N/A   Partly Cloudy
4:55 AM 55.4 °F 55.4 °F 100% 30.10 in 10.0 mi South 5.8 mph - N/A   Partly Cloudy
5:00 AM 55.4 °F 55.4 °F 100% 30.10 in 10.0 mi South 5.8 mph - N/A   Partly Cloudy
5:15 AM 55.4 °F 55.4 °F 100% 30.09 in 10.0 mi South 5.8 mph - N/A   Partly Cloudy
5:35 AM 55.4 °F 55.4 °F 100% 30.09 in 10.0 mi South 5.8 mph - N/A   Mostly Cloudy
5:55 AM 55.4 °F 55.4 °F 100% 30.09 in 10.0 mi South 6.9 mph - N/A   Overcast
6:00 AM 55.4 °F 55.4 °F 100% 30.09 in 10.0 mi South 6.9 mph - N/A   Overcast
6:15 AM 55.4 °F 55.4 °F 100% 30.09 in 10.0 mi South 5.8 mph - N/A   Overcast
6:35 AM 55.4 °F 55.4 °F 100% 30.09 in 10.0 mi South 6.9 mph - N/A   Overcast
6:40 AM 55.4 °F 55.4 °F 100% 30.08 in 10.0 mi South 5.8 mph - N/A   Overcast
6:55 AM 55.4 °F 55.4 °F 100% 30.09 in 10.0 mi South 5.8 mph - N/A   Overcast
7:00 AM 55.4 °F 55.4 °F 100% 30.09 in 10.0 mi South 6.9 mph - N/A   Overcast
7:15 AM 57.2 °F 57.2 °F 100% 30.09 in 10.0 mi South 4.6 mph - N/A   Overcast
7:35 AM 57.2 °F 57.2 °F 100% 30.08 in 10.0 mi South 6.9 mph - N/A   Overcast
7:55 AM 57.2 °F 57.2 °F 100% 30.08 in 10.0 mi South 6.9 mph - N/A   Overcast
8:00 AM 57.2 °F 57.2 °F 100% 30.08 in 10.0 mi South 6.9 mph - N/A   Overcast
8:15 AM 57.2 °F 57.2 °F 100% 30.08 in 10.0 mi South 5.8 mph - N/A   Overcast
8:20 AM 57.2 °F 57.2 °F 100% 30.08 in 10.0 mi South 5.8 mph - N/A   Overcast
8:35 AM 57.2 °F 57.2 °F 100% 30.08 in 10.0 mi South 5.8 mph - N/A   Overcast
8:55 AM 59.0 °F 59.0 °F 100% 30.08 in 10.0 mi South 6.9 mph - N/A   Overcast
9:15 AM 60.8 °F 60.8 °F 100% 30.08 in 10.0 mi SSW 8.1 mph - N/A   Overcast
9:35 AM 64.4 °F 64.4 °F 100% 30.08 in 10.0 mi SSW 11.5 mph - N/A   Overcast
9:40 AM 64.4 °F 64.4 °F 100% 30.08 in 10.0 mi SSW 10.4 mph - N/A   Overcast
9:55 AM 64.4 °F 64.4 °F 100% 30.08 in 10.0 mi SW 11.5 mph - N/A   Overcast
10:00 AM 64.4 °F 64.4 °F 100% 30.08 in 10.0 mi SW 9.2 mph - N/A   Overcast
10:15 AM 64.4 °F 64.4 °F 100% 30.08 in 10.0 mi SW 9.2 mph - N/A   Overcast
10:20 AM 64.4 °F 64.4 °F 100% 30.08 in 10.0 mi WSW 11.5 mph - N/A   Overcast
10:35 AM 64.4 °F 64.4 °F 100% 30.08 in 10.0 mi WSW 9.2 mph - N/A   Mostly Cloudy
10:40 AM 64.4 °F 64.4 °F 100% 30.08 in 10.0 mi SW 8.1 mph - N/A   Mostly Cloudy
10:55 AM 64.4 °F 64.4 °F 100% 30.08 in 10.0 mi SW 10.4 mph - N/A   Mostly Cloudy
11:15 AM 64.4 °F 64.4 °F 100% 30.08 in 10.0 mi SW 9.2 mph - N/A   Mostly Cloudy
11:20 AM 64.4 °F 64.4 °F 100% 30.08 in 10.0 mi WSW 10.4 mph - N/A   Mostly Cloudy
11:35 AM 66.2 °F 66.2 °F 100% 30.08 in 10.0 mi WSW 9.2 mph - N/A   Mostly Cloudy
11:40 AM 66.2 °F 66.2 °F 100% 30.08 in 10.0 mi SW 9.2 mph - N/A   Mostly Cloudy
11:55 AM 66.2 °F 66.2 °F 100% 30.07 in 10.0 mi SW 5.8 mph - N/A   Mostly Cloudy
12:00 PM 66.2 °F 66.2 °F 100% 30.07 in 10.0 mi SW 6.9 mph - N/A   Mostly Cloudy
12:15 PM 66.2 °F 66.2 °F 100% 30.07 in 10.0 mi SW 6.9 mph - N/A   Mostly Cloudy
12:20 PM 66.2 °F 66.2 °F 100% 30.07 in 10.0 mi WSW 8.1 mph - N/A   Overcast
12:35 PM 66.2 °F 66.2 °F 100% 30.07 in 10.0 mi SW 6.9 mph - N/A   Overcast
12:55 PM 66.2 °F 66.2 °F 100% 30.07 in 10.0 mi SW 6.9 mph - N/A   Overcast
1:00 PM 66.2 °F 66.2 °F 100% 30.07 in 10.0 mi SW 5.8 mph - N/A   Overcast
1:15 PM 66.2 °F 66.2 °F 100% 30.07 in 10.0 mi WSW 8.1 mph - N/A   Overcast
1:20 PM 68.0 °F 68.0 °F 100% 30.07 in 10.0 mi SW 8.1 mph - N/A   Overcast
1:35 PM 68.0 °F 68.0 °F 100% 30.06 in 10.0 mi SSW 6.9 mph - N/A   Overcast
1:40 PM 68.0 °F 68.0 °F 100% 30.06 in 10.0 mi SW 8.1 mph - N/A   Overcast
1:55 PM 69.8 °F 69.8 °F 100% 30.06 in 10.0 mi WSW 6.9 mph - N/A   Overcast
2:15 PM 71.6 °F 69.8 °F 94% 30.06 in 10.0 mi SW 5.8 mph - N/A   Mostly Cloudy
2:20 PM 71.6 °F 71.6 °F 100% 30.06 in 10.0 mi SW 5.8 mph - N/A   Mostly Cloudy
2:35 PM 69.8 °F 69.8 °F 100% 30.06 in 10.0 mi SW 4.6 mph - N/A   Mostly Cloudy
2:40 PM 69.8 °F 69.8 °F 100% 30.06 in 10.0 mi Calm Calm - N/A   Scattered Clouds
2:55 PM 71.6 °F 71.6 °F 100% 30.06 in 10.0 mi South 6.9 mph - N/A   Mostly Cloudy
3:00 PM 71.6 °F 71.6 °F 100% 30.06 in 10.0 mi SSW 3.5 mph - N/A   Mostly Cloudy
3:15 PM 71.6 °F 71.6 °F 100% 30.06 in 10.0 mi SW 3.5 mph - N/A   Mostly Cloudy
3:35 PM 73.4 °F 68.0 °F 83% 30.05 in 10.0 mi Calm Calm - N/A   Mostly Cloudy
3:40 PM 73.4 °F 69.8 °F 88% 30.05 in 10.0 mi SW 5.8 mph - N/A   Scattered Clouds
3:55 PM 75.2 °F 69.8 °F 83% 30.05 in 10.0 mi Calm Calm - N/A   Scattered Clouds
4:15 PM 73.4 °F 68.0 °F 83% 30.05 in 10.0 mi Calm Calm - N/A   Partly Cloudy
4:35 PM 73.4 °F 68.0 °F 83% 30.05 in 10.0 mi Calm Calm - N/A   Clear
4:55 PM 75.2 °F 68.0 °F 78% 30.04 in 10.0 mi Calm Calm - N/A   Clear
5:15 PM 73.4 °F 71.6 °F 94% 30.04 in 10.0 mi South 4.6 mph - N/A   Clear
5:20 PM 73.4 °F 71.6 °F 94% 30.04 in 10.0 mi Calm Calm - N/A   Clear
5:35 PM 73.4 °F 69.8 °F 88% 30.04 in 10.0 mi South 4.6 mph - N/A   Clear
5:55 PM 73.4 °F 71.6 °F 94% 30.04 in 10.0 mi Calm Calm - N/A   Clear
6:15 PM 73.4 °F 71.6 °F 94% 30.04 in 10.0 mi SSE 6.9 mph - N/A   Clear
6:20 PM 73.4 °F 71.6 °F 94% 30.04 in 10.0 mi SE 5.8 mph - N/A   Clear
6:35 PM 73.4 °F 71.6 °F 94% 30.04 in 10.0 mi SSE 5.8 mph - N/A   Clear
6:55 PM 71.6 °F 71.6 °F 100% 30.05 in 10.0 mi SSE 4.6 mph - N/A   Clear
7:00 PM 71.6 °F 71.6 °F 100% 30.05 in 10.0 mi SSE 5.8 mph - N/A   Clear
7:15 PM 69.8 °F 69.8 °F 100% 30.05 in 10.0 mi SSE 6.9 mph - N/A   Clear
7:20 PM 69.8 °F 69.8 °F 100% 30.05 in 10.0 mi SSE 6.9 mph - N/A   Clear
7:35 PM 69.8 °F 69.8 °F 100% 30.05 in 10.0 mi SSE 5.8 mph - N/A   Clear
7:55 PM 68.0 °F 68.0 °F 100% 30.05 in 10.0 mi SSE 3.5 mph - N/A   Clear
8:15 PM 66.2 °F 66.2 °F 100% 30.05 in 10.0 mi South 6.9 mph - N/A   Clear
8:35 PM 66.2 °F 66.2 °F 100% 30.06 in 10.0 mi South 4.6 mph - N/A   Clear
8:40 PM 66.2 °F 66.2 °F 100% 30.06 in 10.0 mi SSE 3.5 mph - N/A   Clear
8:55 PM 66.2 °F 66.2 °F 100% 30.07 in 10.0 mi South 4.6 mph - N/A   Clear
9:15 PM 64.4 °F 64.4 °F 100% 30.07 in 10.0 mi South 3.5 mph - N/A   Clear
9:20 PM 64.4 °F 64.4 °F 100% 30.07 in 10.0 mi South 4.6 mph - N/A   Clear
9:35 PM 64.4 °F 64.4 °F 100% 30.08 in 10.0 mi South 4.6 mph - N/A   Clear
9:40 PM 64.4 °F 64.4 °F 100% 30.07 in 10.0 mi South 4.6 mph - N/A   Clear
9:55 PM 64.4 °F 64.4 °F 100% 30.08 in 10.0 mi SSE 3.5 mph - N/A Rain Light Rain
10:15 PM 64.4 °F 64.4 °F 100% 30.08 in 10.0 mi South 4.6 mph - N/A   Partly Cloudy
10:35 PM 62.6 °F 62.6 °F 100% 30.09 in 10.0 mi South 4.6 mph - N/A   Clear
10:55 PM 62.6 °F 62.6 °F 100% 30.09 in 5.0 mi Calm Calm - N/A   Clear
11:00 PM 62.6 °F 62.6 °F 100% 30.09 in 1.2 mi Calm Calm - N/A   Clear
11:15 PM 62.6 °F 62.6 °F 100% 30.09 in 0.5 mi SE 3.5 mph - N/A Fog Fog
11:35 PM 62.6 °F 62.6 °F 100% 30.10 in 0.5 mi Calm Calm - N/A Fog Fog
11:40 PM 60.8 °F 60.8 °F 100% 30.10 in 0.5 mi Calm Calm - N/A Fog Fog